This is the latest recevied weather packets stored in our database for station/object KC4BAM. If no packets are shown the sender has not sent any weather packets the latest 10 day(s).
| Time | Temp. | Humidity | Pressure | Rain* | Wind** | Luminosity | Snow |
|---|---|---|---|---|---|---|---|
| 1778077028 | 10.56° C | 98% | 1003.6 hPa | 0 mm | - | 61 W/m² | - |
| 1778076726 | 10.56° C | 98% | 1003.7 hPa | 0 mm | - | 63 W/m² | - |
| 1778076423 | 10.56° C | 98% | 1003.6 hPa | 0 mm | - | 57 W/m² | - |
| 1778076120 | 10.56° C | 98% | 1003.4 hPa | 0 mm | - | 62 W/m² | - |
| 1778075817 | 10° C | 98% | 1003.2 hPa | 0 mm | - | 46 W/m² | - |
| 1778075513 | 10.56° C | 98% | 1003.5 hPa | 0 mm | - | 21 W/m² | - |
| 1778075210 | 10.56° C | 98% | 1003.5 hPa | 0 mm | - | 18 W/m² | - |
| 1778074906 | 10.56° C | 98% | 1003.3 hPa | 0 mm | - | 23 W/m² | - |
| 1778074603 | 10.56° C | 98% | 1003.1 hPa | 0 mm | - | 24 W/m² | - |
| 1778074300 | 10.56° C | 98% | 1003.1 hPa | 0 mm | - | 25 W/m² | - |
| 1778073997 | 10.56° C | 98% | 1003.1 hPa | 0 mm | - | 34 W/m² | - |
| 1778073694 | 10.56° C | 98% | 1003.1 hPa | 0 mm | - | 22 W/m² | - |
| 1778073391 | 10.56° C | 98% | 1002.9 hPa | 0 mm | - | 25 W/m² | - |
| 1778073087 | 10.56° C | 98% | 1002.8 hPa | 0 mm | - | 23 W/m² | - |
| 1778072785 | 10.56° C | 98% | 1002.9 hPa | 0 mm | - | 21 W/m² | - |
| 1778072482 | 10° C | 98% | 1002.7 hPa | 0 mm | - | 29 W/m² | - |
| 1778072180 | 10.56° C | 98% | 1002.6 hPa | 0 mm | - | 22 W/m² | - |
| 1778071877 | 10.56° C | 98% | 1002.6 hPa | 0 mm | - | 19 W/m² | - |
| 1778071575 | 10.56° C | 98% | 1002.3 hPa | 0 mm | - | 20 W/m² | - |
| 1778071273 | 10.56° C | 98% | 1002.7 hPa | 0 mm | - | 20 W/m² | - |
| 1778070970 | 10.56° C | 98% | 1002.4 hPa | 0 mm | - | 18 W/m² | - |
| 1778070669 | 10.56° C | 98% | 1002.5 hPa | 0 mm | - | 14 W/m² | - |
| 1778070365 | 10.56° C | 98% | 1002.5 hPa | 0 mm | - | 13 W/m² | - |
| 1778070063 | 10.56° C | 98% | 1002.7 hPa | 0 mm | - | 10 W/m² | - |
| 1778069760 | 10.56° C | 98% | 1002.7 hPa | 0 mm | - | 8 W/m² | - |
* Rain latest hour (hover to see other rain measurements)
** Current wind speed in m/s (hover to see current wind gust speed)